Saint Augustine, FL

2:46 PM EST on January 23, 2017 (GMT -0500)
Saint Augustine

Weather History for KSGJ - November, 2013

Change the Weather History Date:

Sunday, November 3, 2013

  Actual Average Record
Temperature  
Mean Temperature 62 °F -  
Max Temperature 72 °F 73 °F 89 °F (2015)
Min Temperature 54 °F 57 °F 42 °F (1996)
Degree Days  
Heating Degree Days 2    
Growing Degree Days 12 (Base 50)    
Moisture  
Dew Point 51 °F    
Average Humidity 65    
Maximum Humidity 96    
Minimum Humidity 39    
Precipitation  
Precipitation 0.00 in - - ()
Sea Level Pressure  
Sea Level Pressure 30.10 in    
Wind  
Wind Speed 10 mph (North)    
Max Wind Speed 23 mph    
Max Gust Speed 29 mph    
Visibility 10 miles    
Events      
Averages and records for this station are not official NWS values.
T = Trace of Precipitation, MM = Missing Value Source: NWS Daily Summary

Daily Weather History Graph

Daily Weather History Graph

Search for Another Location

Airport or City:

Trip Planner

Search our weather history database for the weather conditions in past years. The results will help you decide how hot, cold, wet, or windy it might be!

Date:

Astronomy

Nov. 03, 2013 Rise Set
Actual Time 6:40 AM EST 5:36 PM EST
Civil Twilight 6:16 AM EST 6:01 PM EST
Nautical Twilight 5:47 AM EST 6:29 PM EST
Astronomical Twilight 5:19 AM EST 6:57 PM EST
Moon 6:42 AM EST (11/3) 5:52 PM EST (11/3)
Length of Visible Light 11h 45m
Length of Day
10h 55m
New Moon, 0% of the Moon is Illuminated
Nov 3
New Moon
Nov 10
First Quarter
Nov 17
Full
Nov 25
Last Quarter
Dec 2
New

Hourly Weather History & Observations

Time (EST) Temp. Dew Point Humidity Pressure Visibility Wind Dir Wind Speed Gust Speed Precip Events Conditions
12:58 AM 59.0 °F 57.9 °F 96% 29.98 in 10.0 mi West 3.5 mph - N/A   Clear
1:58 AM 59.0 °F 55.9 °F 90% 29.99 in 10.0 mi WNW 6.9 mph - N/A   Clear
1:58 AM 57.9 °F 54.0 °F 87% 30.00 in 10.0 mi WNW 8.1 mph - N/A   Clear
2:58 AM 55.9 °F 52.0 °F 87% 30.00 in 10.0 mi NW 6.9 mph - N/A   Clear
3:58 AM 55.9 °F 51.1 °F 84% 30.01 in 10.0 mi NW 6.9 mph - N/A   Clear
4:58 AM 55.0 °F 50.0 °F 83% 30.02 in 10.0 mi NW 8.1 mph - N/A   Clear
5:58 AM 54.0 °F 48.9 °F 83% 30.04 in 10.0 mi NW 10.4 mph - N/A   Clear
6:58 AM 54.0 °F 48.9 °F 83% 30.06 in 10.0 mi NW 8.1 mph - N/A   Clear
7:58 AM 55.9 °F 51.1 °F 84% 30.09 in 10.0 mi NNW 9.2 mph - N/A   Clear
8:58 AM 62.1 °F 55.0 °F 78% 30.12 in 10.0 mi NNW 12.7 mph - N/A   Clear
9:58 AM 66.9 °F 55.9 °F 68% 30.13 in 10.0 mi North 16.1 mph 21.9 mph N/A   Clear
10:58 AM 69.1 °F 46.9 °F 45% 30.13 in 10.0 mi North 13.8 mph 24.2 mph N/A   Partly Cloudy
11:58 AM 71.1 °F 45.0 °F 39% 30.14 in 10.0 mi NNE 12.7 mph - N/A   Clear
12:58 PM 71.1 °F 46.0 °F 41% 30.12 in 10.0 mi North 17.3 mph - N/A   Partly Cloudy
1:58 PM 70.0 °F 46.0 °F 42% 30.11 in 10.0 mi NNE 16.1 mph - N/A   Partly Cloudy
2:58 PM 70.0 °F 46.9 °F 44% 30.11 in 10.0 mi NNE 16.1 mph - N/A   Scattered Clouds
3:58 PM 69.1 °F 45.0 °F 42% 30.12 in 10.0 mi NNE 16.1 mph 23.0 mph N/A   Clear
4:58 PM 68.0 °F 46.9 °F 47% 30.13 in 10.0 mi NNE 15.0 mph - N/A   Partly Cloudy
5:58 PM 66.9 °F 48.9 °F 52% 30.14 in 10.0 mi NNE 16.1 mph 23.0 mph N/A   Clear
6:58 PM 66.9 °F 50.0 °F 54% 30.16 in 10.0 mi NNE 18.4 mph 21.9 mph N/A   Partly Cloudy
7:58 PM 66.9 °F 51.1 °F 57% 30.17 in 10.0 mi NNE 19.6 mph 26.5 mph N/A   Clear
8:58 PM 68.0 °F 54.0 °F 61% 30.18 in 10.0 mi NE 17.3 mph 24.2 mph N/A   Scattered Clouds
9:58 PM 66.9 °F 53.1 °F 61% 30.19 in 10.0 mi NE 23.0 mph 28.8 mph N/A   Partly Cloudy
10:58 PM 66.9 °F 53.1 °F 61% 30.19 in 10.0 mi NE 20.7 mph - N/A   Clear